[[{"header":{"parameterUnit":"m.s-1","parameterCategory":1,"la1":30.2991,"la2":30.254,"lo1":-89.0895,"lo2":-89.0444,"dy":0.0017,"dx":0.0017,"nx":28,"ny":28,"refTime":"2024-11-26T03:00:00:Z","depth":0,"parameterNumber":2,"parameterNumberName":"U-component_of_WINDS"},"data":[0,0,0,0,0,0,0,0,0,0,0,0,0,0,0,0,0,0,0,0,0,0,0,0,0,0,0,0,0,0,0,0,0,0,0,0,0,0,0,0,0,0,0,0,0,0,0,0,0,0,0,0,0,0,0,0,0,0,1.2029,1.2029,0,1.2026,1.2026,1.2026,1.1995,1.1995,1.1994,1.1993,1.1992,1.1992,1.1993,0,0,0,0,0,0,0,0,0,0,0,0,0,1.2008,1.2009,1.2029,1.2029,1.2029,1.2026,1.2026,1.2026,1.1996,1.1995,1.1994,1.1993,1.1991,1.1992,1.1993,0,0,0,0,0,0,0,0,0,0,0,0,0,1.2013,1.2009,1.2029,1.2013,1.2012,1.2026,1.2026,1.2026,1.1996,1.1995,1.1993,1.1992,1.1991,1.1992,1.1993,1.2023,0,0,1.1996,1.1997,0,0,0,0,0,0,0,0,1.2013,1.2014,1.2015,1.2014,1.2013,1.201,1.2019,1.2025,1.1996,1.2002,1.1993,1.1992,1.1999,1.1999,1.2001,1.2023,1.2023,1.1996,1.1997,1.1997,1.1998,0,0,0,0,0,0,0,1.2012,1.2014,1.2028,1.2016,1.2014,1.2007,1.2006,1.202,1.2007,1.2001,1.1999,1.1999,1.1998,1.2,1.2001,1.2023,1.1996,1.1997,1.1998,1.1998,1.2071,1.2072,0,0,0,0,0,0,1.2014,1.2013,1.2028,1.2028,1.201,1.2008,1.2007,1.2012,1.2007,1.2005,1.2,1.1998,1.1999,1.2,1.2001,1.2036,1.1997,1.1998,1.1999,1.2069,1.2071,1.2072,0,0,0,0,0,0,1.2014,1.2016,1.2028,1.202,1.2021,1.201,1.2015,1.2013,1.2015,1.2006,1.2004,1.2005,1.1998,1.1999,1.2018,1.2036,1.1999,1.2,1.2068,1.207,1.2072,1.2107,0,0,0,0,0,0,1.2013,1.2016,1.2026,1.202,1.2022,1.2045,1.2016,1.2013,1.2017,1.2014,1.201,1.2008,1.1997,1.2017,1.2019,1.2036,1.2001,1.2066,1.2069,1.2071,1.2104,1.211,1.2115,0,0,0,0,0,1.2013,1.2036,1.2027,1.2029,1.2035,1.2046,1.2047,1.2034,1.2018,1.203,1.2024,1.2008,1.2033,1.2019,1.2021,1.2039,1.2065,1.2068,1.2071,1.2102,1.2109,1.2115,0,0,0,0,0,0,1.2045,1.2035,1.2025,1.2047,1.2048,1.2041,1.2054,1.2041,1.2046,1.2043,1.2027,1.2026,1.2048,1.2045,1.2029,1.2069,1.2047,1.205,1.2069,1.2076,1.2081,1.2081,1.2001,0,0,0,0,0,1.2054,1.2064,1.2055,1.2076,1.2077,1.2066,1.207,1.206,1.206,1.206,1.2055,1.2056,1.2064,1.207,1.2077,1.2104,1.2103,1.2118,1.2123,1.2127,1.213,1.2146,1.2152,1.2082,1.2082,1.2082,0,0,1.2074,1.207,1.2077,1.2082,1.2081,1.2092,1.2066,1.2078,1.2086,1.2062,1.2079,1.2076,1.2076,1.2099,1.2109,1.2098,1.215,1.2131,1.2135,1.2135,1.2149,1.2156,1.2162,1.2084,1.2083,1.2083,0,0,1.2116,1.2114,1.2131,1.2131,1.213,1.2123,1.2127,1.2123,1.212,1.2137,1.2119,1.2129,1.2143,1.2144,1.2146,1.219,1.2176,1.2193,1.2221,1.2236,1.2241,1.2246,1.2262,1.2268,1.2196,1.2197,1.2197,0,1.2141,1.2156,1.2142,1.2156,1.2159,1.2138,1.2156,1.2156,1.2158,1.2161,1.2148,1.2166,1.2165,1.2188,1.2199,1.2202,1.2207,1.2193,1.2242,1.2246,1.2251,1.2266,1.2272,1.2199,1.2198,1.2198,1.2198,0,1.2187,1.2198,1.2213,1.2215,1.222,1.2235,1.2224,1.2231,1.2221,1.2216,1.2234,1.2232,1.2238,1.2243,1.2233,1.2266,1.2259,1.2244,1.2222,1.226,1.2274,1.2279,1.2202,1.2201,1.22,1.22,0,0,1.2248,1.2243,1.2249,1.225,1.2248,1.2257,1.2272,1.2278,1.2285,1.2287,1.23,1.2313,1.23,1.2303,1.2293,1.2306,1.2342,1.229,1.229,1.23,1.2379,1.239,1.2397,1.2333,1.2334,1.2335,1.2379,0,1.2289,1.2315,1.2303,1.233,1.2341,1.2321,1.2335,1.2336,1.2331,1.234,1.2335,1.2345,1.2326,1.2328,1.234,1.2335,1.2358,1.2332,1.2346,1.2347,1.2346,1.2404,1.2416,1.2457,1.2384,1.2385,1.2386,0,1.234,1.2345,1.2373,1.237,1.2374,1.2386,1.2392,1.24,1.2401,1.2397,1.2401,1.2389,1.2404,1.2382,1.2404,1.2387,1.2392,1.2391,1.2392,1.2393,1.2368,1.2407,1.247,1.2476,1.2395,1.2394,1.2393,0,1.2382,1.2396,1.2414,1.2416,1.2413,1.2422,1.2422,1.2421,1.2426,1.2432,1.2435,1.2442,1.2446,1.2452,1.2442,1.2427,1.2466,1.2443,1.2464,1.2464,1.2472,1.2472,1.2537,1.2476,1.2476,1.2476,1.2475,0,1.2429,1.2447,1.2433,1.2445,1.2465,1.2452,1.2473,1.247,1.247,1.2481,1.2465,1.2476,1.2463,1.2473,1.2466,1.2486,1.2488,1.2485,1.2483,1.2487,1.2487,1.249,1.2487,1.2477,1.2477,1.2476,1.2476,0,1.2479,1.2471,1.249,1.2486,1.2486,1.2501,1.2498,1.2509,1.2504,1.2518,1.2521,1.2513,1.2524,1.2515,1.2526,1.2521,1.2548,1.2542,1.2547,1.2546,1.2567,1.2565,1.2636,1.2645,1.2578,1.2579,1.2579,0,1.251,1.2523,1.2521,1.2527,1.2528,1.2538,1.2543,1.2532,1.2538,1.2541,1.2552,1.2562,1.2569,1.2588,1.2583,1.2592,1.2586,1.261,1.2587,1.2591,1.2587,1.2586,1.2588,1.2615,1.2616,1.2616,1.2617,0,1.2565,1.256,1.2568,1.2575,1.2582,1.2587,1.259,1.2597,1.2585,1.2593,1.2604,1.261,1.2621,1.2631,1.2639,1.2639,1.2626,1.2624,1.263,1.2633,1.2636,1.2636,1.256,1.2623,1.2622,1.2622,1.2621,1.2621,1.2606,1.2618,1.2618,1.2628,1.263,1.2634,1.2644,1.2641,1.265,1.2658,1.2651,1.2665,1.2667,1.2675,1.2677,1.2688,1.2678,1.2685,1.2687,1.2689,1.2693,1.2635,1.2689,1.2689,1.2689,1.2689,1.2688,0,1.2661,1.2661,1.267,1.2676,1.2684,1.2671,1.2675,1.2683,1.2695,1.2698,1.2705,1.2719,1.2729,1.2726,1.2735,1.2745,1.2739,1.2748,1.2747,1.2747,1.2701,1.2695,1.2752,1.2752,1.2752,1.2752,1.2752,1.2752,1.269,1.2709,1.2705,1.2725,1.2725,1.2738,1.2742,1.2746,1.2748,1.2764,1.2772,1.277,1.2771,1.278,1.2789,1.2788,1.2793,1.2803,1.28,1.2757,1.275,1.2744,1.2739,1.2804,1.2804,1.2846,1.2846,1.2846]},{"header":{"parameterUnit":"m.s-1","parameterCategory":1,"la1":30.2991,"la2":30.254,"lo1":-89.0895,"lo2":-89.0444,"dy":0.0017,"dx":0.0017,"nx":28,"ny":28,"refTime":"2024-11-26T03:00:00:Z","depth":0,"parameterNumber":3,"parameterNumberName":"V-component_of_WINDS"},"data":[0,0,0,0,0,0,0,0,0,0,0,0,0,0,0,0,0,0,0,0,0,0,0,0,0,0,0,0,0,0,0,0,0,0,0,0,0,0,0,0,0,0,0,0,0,0,0,0,0,0,0,0,0,0,0,0,0,0,-3.8692,-3.8693,0,-3.8858,-3.886,-3.8862,-3.8901,-3.89,-3.8899,-3.8898,-3.9065,-3.907,-3.9076,0,0,0,0,0,0,0,0,0,0,0,0,0,-3.8408,-3.8413,-3.8691,-3.8694,-3.8696,-3.8858,-3.886,-3.8862,-3.8901,-3.89,-3.8899,-3.8897,-3.9063,-3.907,-3.9076,0,0,0,0,0,0,0,0,0,0,0,0,0,-3.8548,-3.8415,-3.8691,-3.8735,-3.874,-3.8857,-3.886,-3.8863,-3.8902,-3.89,-3.8898,-3.8897,-3.9061,-3.9069,-3.9077,-3.9161,0,0,-3.9102,-3.9106,0,0,0,0,0,0,0,0,-3.854,-3.8559,-3.8726,-3.8732,-3.8739,-3.8857,-3.8821,-3.8963,-3.8902,-3.884,-3.8898,-3.8896,-3.8997,-3.901,-3.9045,-3.9169,-3.9176,-3.9103,-3.9108,-3.9112,-3.9114,0,0,0,0,0,0,0,-3.853,-3.8552,-3.8757,-3.8729,-3.8736,-3.8746,-3.8764,-3.8848,-3.8926,-3.8846,-3.8849,-3.8868,-3.9,-3.9037,-3.9049,-3.9179,-3.9103,-3.911,-3.9115,-3.9118,-3.9384,-3.9386,0,0,0,0,0,0,-3.8513,-3.8543,-3.8752,-3.8762,-3.8633,-3.8753,-3.8773,-3.8821,-3.8925,-3.8939,-3.8869,-3.8869,-3.9024,-3.904,-3.9055,-3.9163,-3.9112,-3.9119,-3.9124,-3.9381,-3.9384,-3.9386,0,0,0,0,0,0,-3.8507,-3.8532,-3.8745,-3.8654,-3.8682,-3.8759,-3.8813,-3.8825,-3.8862,-3.8943,-3.8957,-3.8893,-3.9023,-3.9044,-3.9136,-3.917,-3.9123,-3.913,-3.9379,-3.9382,-3.9385,-3.9378,0,0,0,0,0,0,-3.8499,-3.8529,-3.8562,-3.8654,-3.8687,-3.8823,-3.8815,-3.8829,-3.8877,-3.8878,-3.8969,-3.8983,-3.9024,-3.9123,-3.9144,-3.918,-3.9137,-3.9376,-3.938,-3.9384,-3.9375,-3.938,-3.9385,0,0,0,0,0,-3.8488,-3.8551,-3.8563,-3.8588,-3.8729,-3.8825,-3.8843,-3.889,-3.8879,-3.8913,-3.8965,-3.898,-3.9162,-3.9132,-3.9156,-3.9195,-3.9374,-3.9379,-3.9384,-3.9373,-3.9379,-3.9384,0,0,0,0,0,0,-3.8459,-3.8564,-3.8578,-3.8673,-3.874,-3.8831,-3.8875,-3.8894,-3.8964,-3.8963,-3.9017,-3.9037,-3.9126,-3.917,-3.9134,-3.9284,-3.9268,-3.9278,-3.9252,-3.9258,-3.9263,-3.9251,-3.9144,0,0,0,0,0,-3.8464,-3.8533,-3.8621,-3.8696,-3.8729,-3.8796,-3.884,-3.887,-3.8941,-3.8969,-3.9028,-3.9096,-3.9169,-3.9216,-3.9287,-3.9382,-3.9403,-3.942,-3.9425,-3.9428,-3.9436,-3.9493,-3.9502,-3.9402,-3.9402,-3.9402,0,0,-3.8474,-3.854,-3.858,-3.8692,-3.8748,-3.8819,-3.882,-3.8894,-3.8948,-3.898,-3.9072,-3.9118,-3.9197,-3.9291,-3.9336,-3.933,-3.9469,-3.9434,-3.9436,-3.9443,-3.9498,-3.9508,-3.9516,-3.9405,-3.9405,-3.9404,0,0,-3.8529,-3.8585,-3.8656,-3.8712,-3.8796,-3.8841,-3.8858,-3.8948,-3.898,-3.9073,-3.91,-3.9164,-3.9288,-3.9344,-3.9389,-3.9469,-3.9486,-3.9491,-3.9515,-3.9569,-3.9577,-3.9584,-3.9615,-3.9625,-3.9498,-3.9498,-3.9498,0,-3.853,-3.8639,-3.8689,-3.8764,-3.8813,-3.8848,-3.8921,-3.8972,-3.9075,-3.9109,-3.9101,-3.926,-3.9315,-3.9425,-3.9445,-3.9479,-3.9502,-3.9481,-3.9572,-3.958,-3.9587,-3.9617,-3.9629,-3.9499,-3.9499,-3.9499,-3.9499,0,-3.8638,-3.8713,-3.876,-3.8861,-3.8916,-3.8988,-3.905,-3.9099,-3.9126,-3.9172,-3.9267,-3.9335,-3.9423,-3.9451,-3.9476,-3.9565,-3.956,-3.9561,-3.9547,-3.9596,-3.9626,-3.9637,-3.9499,-3.9499,-3.9499,-3.9499,0,0,-3.8678,-3.8808,-3.8825,-3.8872,-3.897,-3.9029,-3.9104,-3.9191,-3.9234,-3.9304,-3.9369,-3.9475,-3.9479,-3.953,-3.9562,-3.9609,-3.9672,-3.9606,-3.9609,-3.9617,-3.9777,-3.9776,-3.9788,-3.9683,-3.9686,-3.9687,-3.9771,0,-3.8746,-3.8883,-3.8932,-3.9045,-3.9116,-3.9152,-3.9218,-3.9285,-3.933,-3.9397,-3.9447,-3.9522,-3.952,-3.9551,-3.96,-3.9654,-3.9705,-3.9648,-3.9745,-3.9748,-3.9726,-3.9803,-3.9802,-3.9877,-3.9782,-3.9784,-3.9786,0,-3.8844,-3.8919,-3.9039,-3.9131,-3.9163,-3.9221,-3.9307,-3.937,-3.9448,-3.9478,-3.9536,-3.9566,-3.9647,-3.9628,-3.9741,-3.9702,-3.9745,-3.9778,-3.9782,-3.9794,-3.9771,-3.9819,-3.9902,-3.9914,-3.9804,-3.9802,-3.9801,0,-3.8864,-3.8994,-3.9084,-3.9123,-3.9232,-3.9273,-3.932,-3.9396,-3.9446,-3.9521,-3.9554,-3.9636,-3.9682,-3.9745,-3.9797,-3.9778,-3.9906,-3.9891,-3.9934,-3.9933,-3.996,-3.9958,-4.0053,-3.9985,-3.9985,-3.9985,-3.9985,0,-3.8936,-3.9009,-3.9095,-3.915,-3.9234,-3.9289,-3.937,-3.9419,-3.9487,-3.9553,-3.9588,-3.9649,-3.9713,-3.9783,-3.9824,-3.9913,-3.9932,-3.996,-3.997,-3.9958,-3.9954,-3.9987,-3.9984,-3.9988,-3.9987,-3.9987,-3.9986,0,-3.8972,-3.9032,-3.9133,-3.9229,-3.9255,-3.9312,-3.9394,-3.945,-3.9498,-3.9581,-3.9604,-3.9678,-3.9763,-3.9821,-3.9928,-3.9956,-4.0053,-4.0061,-4.0027,-4.0033,-4.0074,-4.007,-4.0195,-4.0215,-4.0131,-4.0132,-4.0132,0,-3.9015,-3.9073,-3.9175,-3.9223,-3.9271,-3.9346,-3.9399,-3.9456,-3.951,-3.9604,-3.9649,-3.9736,-3.9809,-3.9942,-4.0006,-4.0089,-4.0101,-4.0139,-4.0113,-4.01,-4.0104,-4.0101,-4.0108,-4.0143,-4.0143,-4.0144,-4.0144,0,-3.9086,-3.9113,-3.9188,-3.9275,-3.9337,-3.9407,-3.9478,-3.9515,-3.9585,-3.9643,-3.9731,-3.9787,-3.9899,-3.9986,-4.0075,-4.0124,-4.0147,-4.0152,-4.0167,-4.0155,-4.0134,-4.0149,-4.004,-4.0149,-4.0148,-4.0148,-4.0148,-4.0148,-3.9128,-3.9182,-3.9264,-3.9347,-3.9407,-3.9473,-3.9531,-3.9587,-3.9662,-3.9758,-3.9787,-3.9879,-3.9958,-4.0081,-4.0131,-4.0204,-4.0201,-4.0222,-4.0228,-4.0232,-4.0234,-4.0122,-4.022,-4.022,-4.022,-4.022,-4.022,0,-3.9202,-3.9257,-3.9333,-3.9433,-3.9499,-3.9515,-3.9595,-3.9649,-3.973,-3.9802,-3.9874,-3.9976,-4.0062,-4.0133,-4.0221,-4.0266,-4.0279,-4.0287,-4.0285,-4.0297,-4.023,-4.0209,-4.0276,-4.0276,-4.0276,-4.0276,-4.0276,-4.0276,-3.9248,-3.9342,-3.938,-3.9504,-3.9558,-3.965,-3.9694,-3.9756,-3.9814,-3.9928,-3.9999,-4.0046,-4.0119,-4.0213,-4.0292,-4.0311,-4.0343,-4.0349,-4.0371,-4.0307,-4.0301,-4.0295,-4.0276,-4.0355,-4.0355,-4.0432,-4.0433,-4.0433]}]]